Location: Presov
(49.0000°N, 21.2500°E)
Time: 07:15:28
(UTC+02:00)

Transit 2A Rocket - Pass Details

Date: 19 April 2021
Orbit: 594 x 909 km, 66.7° (Epoch: 07 May)

Event Time Altitude Azimuth Distance (km) Brightness Sun altitude
Rises 23:50:51 0° 326° (NW) 2,863 9.0 -28.8°
Reaches altitude 10° 23:53:06 10° 331° (NNW) 1,976 8.0 -28.8°
Enters shadow 23:56:30 45° 6° (N) 859 5.6 -28.9°
Maximum altitude 23:57:27 55° 50° (NE) 768 - -29.0°
Drops below altitude 10° 00:02:05 10° 129° (SE) 2,100 - -29.1°
Sets 00:04:31 0° 133° (SE) 3,061 - -29.2°
